EA8URG-10 Weather Reports


time (UTC)temp
F
wind
direction
speed
knots
gust
knots
rain 1hr
in
rain 24hr
in
rain mn
in
humidity
%
barometer
mb
20260503010058 66 205 2.6 4.3 0.00 0.00 0.00 72 1013.8
20260503005057 66 258 0.0 2.6 0.00 0.00 0.00 72 1013.8
20260503003906 66 292 0.9 3.5 0.00 0.00 0.00 73 1013.8
20260503002906 66 198 1.7 3.5 0.00 0.00 0.00 73 1013.8
20260503001906 66 212 0.0 1.7 0.00 0.00 0.00 72 1013.8
20260503000906 66 152 0.0 2.6 0.00 0.00 0.00 72 1014.8
20260502235915 66 129 0.0 3.5 0.00 0.00 0.00 72 1014.8
20260502234915 66 48 0.9 1.7 0.00 0.00 0.00 72 1014.8
20260502233915 66 68 0.0 0.9 0.00 0.00 0.00 72 1013.8
20260502232915 66 70 0.0 1.7 0.00 0.00 0.00 72 1013.8
20260502231724 66 202 0.0 0.0 0.00 0.00 0.00 72 1013.8
20260502230724 66 299 0.0 0.0 0.00 0.00 0.00 72 1013.8
20260502225459 66 128 0.0 0.9 0.00 0.00 0.00 72 1013.8
20260502224501 66 248 0.0 0.0 0.00 0.00 0.00 71 1013.8
20260502223459 66 248 0.0 0.0 0.00 0.00 0.00 71 1013.8
20260502222459 66 264 0.0 0.0 0.00 0.00 0.00 70 1013.8
20260502221459 66 248 0.0 0.0 0.00 0.00 0.00 70 1013.8
20260502220308 67 248 0.0 0.0 0.00 0.00 0.00 68 1013.8
20260502215308 67 248 0.0 0.9 0.00 0.00 0.00 68 1013.8
20260502214308 67 0 0.0 0.0 0.00 0.00 0.00 67 1013.8
20260502213308 67 0 0.0 0.0 0.00 0.00 0.00 66 1013.8
20260502212308 67 3 0.9 2.6 0.00 0.00 0.00 66 1013.8
20260502211117 67 6 0.9 2.6 0.00 0.00 0.00 66 1013.8
20260502210117 67 22 0.9 2.6 0.00 0.00 0.00 66 1013.8
20260502205117 68 158 0.0 0.9 0.00 0.00 0.00 65 1013.8
20260502204117 68 165 0.0 0.0 0.00 0.00 0.00 65 1013.8
20260502202748 68 112 0.0 0.0 0.00 0.00 0.00 65 1013.8
20260502201757 68 163 0.0 2.6 0.00 0.00 0.00 66 1013.8
20260502200748 68 129 0.9 2.6 0.00 0.00 0.00 66 1013.8
20260502195748 68 87 0.0 2.6 0.00 0.00 0.00 67 1013.8
20260502194748 68 107 0.0 1.7 0.00 0.00 0.00 66 1013.8
20260502193556 68 125 0.0 1.7 0.00 0.00 0.00 66 1013.8
20260502192557 68 5 0.0 2.6 0.00 0.00 0.00 66 1013.8
20260502191557 69 168 0.9 2.6 0.00 0.00 0.00 65 1013.8
20260502190405 69 160 0.0 1.7 0.00 0.00 0.00 65 1013.8
20260502185405 68 68 0.0 1.7 0.00 0.00 0.00 66 1013.8
20260502184406 68 112 0.9 3.5 0.00 0.00 0.00 66 1013.8
20260502183214 68 79 0.9 2.6 0.00 0.00 0.00 66 1013.8
20260502182213 68 96 0.9 2.6 0.00 0.00 0.00 65 1013.8
20260502181214 68 90 0.9 3.5 0.00 0.00 0.00 64 1013.8
20260502180214 69 98 0.9 4.3 0.00 0.00 0.00 63 1013.8
20260502110953 70 35 2.6 7.8 0.00 0.00 0.00 58 1014.8
20260502105953 70 42 2.6 4.3 0.00 0.00 0.00 58 1014.8
20260502104801 70 31 4.3 7.8 0.00 0.00 0.00 58 1014.8
20260502103802 71 37 2.6 7.0 0.00 0.00 0.00 57 1014.8
20260502102610 69 62 1.7 5.2 0.00 0.00 0.00 60 1014.8
20260502101610 69 78 2.6 9.6 0.00 0.00 0.00 60 1014.8
20260502100610 69 58 4.3 7.8 0.00 0.00 0.00 60 1014.8
20260502091419 72 35 3.5 8.7 0.00 0.00 0.00 53 1014.8
20260502090419 73 115 1.7 4.3 0.00 0.00 0.00 51 1014.8
20260502070711 68 282 0.9 3.5 0.00 0.00 0.00 66 1013.8
20260502065711 65 208 1.7 5.2 0.00 0.00 0.00 71 1013.8
20260502064711 63 202 3.5 5.2 0.00 0.00 0.00 76 1013.8
20260502063711 63 211 2.6 5.2 0.00 0.00 0.00 76 1013.8
20260502062520 63 235 0.0 1.7 0.00 0.00 0.00 77 1012.8
20260502061520 63 250 0.0 1.7 0.00 0.00 0.00 77 1012.8
20260502060520 63 160 0.0 1.7 0.00 0.00 0.00 76 1012.8
20260502055520 63 0 0.0 0.0 0.00 0.00 0.00 75 1012.8
20260502054520 63 245 0.0 0.9 0.00 0.00 0.00 76 1012.8
20260502053520 63 338 0.0 0.0 0.00 0.00 0.00 76 1012.8
20260502052520 63 340 0.0 0.0 0.00 0.00 0.00 75 1012.8
20260502051520 63 338 0.0 0.0 0.00 0.00 0.00 75 1012.8
20260502050520 64 270 0.0 0.0 0.00 0.00 0.00 75 1012.8
20260502045329 64 330 0.0 1.7 0.00 0.00 0.00 74 1013.8
20260502044137 64 328 0.0 0.9 0.00 0.00 0.00 74 1012.8
20260502043137 63 320 0.0 0.0 0.00 0.00 0.00 75 1012.8
20260502042137 64 53 0.0 0.0 0.00 0.00 0.00 75 1012.8
20260502041137 64 340 0.0 0.9 0.00 0.00 0.00 75 1013.8
20260502040137 64 342 0.0 0.0 0.00 0.00 0.00 75 1013.8
20260502035137 64 292 0.0 0.0 0.00 0.00 0.00 75 1013.8
20260502033946 64 298 0.0 0.9 0.00 0.00 0.00 75 1013.8
20260502032946 64 248 0.0 0.0 0.00 0.00 0.00 75 1013.8
20260502031946 64 302 0.0 0.9 0.00 0.00 0.00 75 1013.8
20260502030946 64 302 0.0 1.7 0.00 0.00 0.00 75 1013.8
20260502025946 64 310 0.0 0.0 0.00 0.00 0.00 75 1013.8
20260502024946 64 228 0.0 0.9 0.00 0.00 0.00 74 1013.8
20260502023946 65 338 0.0 0.9 0.00 0.00 0.00 74 1013.8
20260502022755 65 315 0.0 0.0 0.00 0.00 0.00 74 1013.8
20260502021755 65 338 0.0 0.9 0.00 0.00 0.00 73 1013.8
20260502020604 65 348 0.0 0.9 0.00 0.00 0.00 73 1013.8
20260502015603 65 0 0.0 0.0 0.00 0.00 0.00 73 1014.8
20260502014604 65 14 0.0 0.9 0.00 0.00 0.00 72 1014.8
20260502013603 66 329 0.0 1.7 0.00 0.00 0.00 72 1014.8
20260502012603 66 270 0.0 0.0 0.00 0.00 0.00 72 1014.8
20260502011604 66 315 0.0 0.9 0.00 0.00 0.00 71 1014.8
20260502010603 66 335 0.0 0.9 0.00 0.00 0.00 70 1014.8